Hourly Data Report for December 05, 2020

L'ASSOMPTION
QUEBEC
Current Station Operator: ECCC - MSC

45°48'34.000" N
73°26'05.000" W
21.00 m
7014160
71524
WEW

Download Data

Hourly Data (December 2020)
Hourly Data Report for December 5, 2020
TIME
LST
Temp Definition
°C
Dew Point Definition
°C
Rel Hum Definition
%
Precip. Amount Definition
mm

Wind Dir Definition
10's deg

Wind Spd Definition
km/h
Visibility Definition
km
Stn Press Definition
kPa
Hmdx Definition


Wind Chill Definition


Weather Definition


00:00 0.4 0.0 97 0.2 35 2   101.01     LegendNANA
01:00 0.2 -0.1 98 0.0 29 2   101.05     LegendNANA
02:00 0.5 0.2 98 0.0 26 5   101.10     LegendNANA
03:00 -0.2 -0.5 98 0.0 36 2   101.11   -1 LegendNANA
04:00 0.0 -0.2 98 0.0 33 3   101.11   -1 LegendNANA
05:00 0.3 -0.2 96 0.0 3 6   101.11     LegendNANA
06:00 0.7 -0.3 93 0.0 4 10   101.18     LegendNANA
07:00 0.9 -0.1 93 0.0 3 4   101.21     LegendNANA
08:00 1.1 -0.2 91 0.0 3 6   101.29     LegendNANA
09:00 1.3 -0.2 90 0.0 6 10   101.31     LegendNANA
10:00 1.6 0.1 90 0.0 35 9   101.26     LegendNANA
11:00 2.2 0.6 89 0.0 36 8   101.16     LegendNANA
12:00 3.0 0.4 83 0.0 1 13   101.06     LegendNANA
13:00 3.2 -0.1 79 0.0 2 13   101.04     LegendNANA
14:00 3.0 -0.5 78 0.0 2 13   101.00     LegendNANA
15:00 2.7 -1.3 75 0.0 2 14   101.01     LegendNANA
16:00 2.1 -2.0 74 0.0 35 17   101.00     LegendNANA
17:00 0.3 -3.7 75 0.0 36 17   101.04     LegendNANA
18:00 -0.4 -5.1 71 0.0 36 16   101.03   -5 LegendNANA
19:00 -0.9 -6.5 65 0.0 35 15   100.99   -6 LegendNANA
20:00 -1.5 -7.1 66 0.0 34 17   100.95   -7 LegendNANA
21:00 -2.0 -7.2 68 0.0 34 17   100.90   -7 LegendNANA
22:00 -2.4 -7.0 71 0.0 33 22   100.85   -9 LegendNANA
23:00 -2.7 -7.1 72 0.0 34 17   100.83   -8 LegendNANA

Notes on Data Quality.

Legend

  • E = Estimated
  • M = Missing
  • NA = Not Available*
  • [empty] = Indicates an unobserved value
Date modified: